Kazan, Russia

4:18 PM MSK on December 09, 2019 (GMT +0300)
Kazan

Weather History for UWKD - October, 2019

Change the Weather History Date:

Wednesday, October 30, 2019

  Actual Average (WUND) Record (WUND)
Temperature  
Mean Temperature 32 °F -  
Max Temperature 37 °F - - (-1)
Min Temperature 27 °F - - (-1)
Degree Days  
Heating Degree Days 33    
Moisture  
Dew Point 26 °F    
Average Humidity 78    
Maximum Humidity 93    
Minimum Humidity 53    
Precipitation  
Precipitation 0.00 in - - ()
Sea Level Pressure  
Sea Level Pressure 29.80 in    
Wind  
Wind Speed 9 mph ()    
Max Wind Speed 13 mph    
Max Gust Speed 22 mph    
Visibility 6.1 miles    
Events Rain , Snow    
Averages and records for this station are not official NWS values.
T = Trace of Precipitation, MM = Missing Value Source: Averaged Metar Reports

Daily Weather History Graph

Daily Weather History Graph

Search for Another Location

Airport or City:

Astronomy

Oct. 30, 2019 Rise Set
Actual Time 6:43 AM MSK 4:08 PM MSK
Civil Twilight 6:04 AM MSK 4:47 PM MSK
Nautical Twilight 5:20 AM MSK 5:31 PM MSK
Astronomical Twilight 4:38 AM MSK 6:13 PM MSK
Moon 9:19 AM MSK (10/30) 5:37 PM MSK (10/30)
Length of Visible Light 10h 43m
Length of Day
9h 25m
Waxing Crescent, 7% of the Moon is Illuminated
Oct 30
Waxing Crescent
Nov 4
First Quarter
Nov 12
Full
Nov 20
Last Quarter
Nov 26
New

Hourly Weather History & Observations

Time (MSK) Temp. Windchill Dew Point Humidity Pressure Visibility Wind Dir Wind Speed Gust Speed Precip Events Conditions
12:00 AM 30 °F - 25 °F 74% 30.00 in 6 mi ESE 4.5 mph - -   Scattered Clouds
12:30 AM 24.8 °F 15.5 °F 21.2 °F 86% 29.95 in - ESE 8.9 mph - N/A   Clear
1:00 AM 24.8 °F 17.1 °F 21.2 °F 86% 29.95 in - East 6.7 mph - N/A   Clear
2:00 AM 26.6 °F 17.7 °F 23.0 °F 86% 29.95 in - ESE 8.9 mph - N/A   Clear
2:30 AM 26.6 °F 17.7 °F 21.2 °F 80% 29.92 in - ESE 8.9 mph - N/A   Clear
3:00 AM 28 °F - 24 °F 77% 29.97 in 6 mi East 4.5 mph - -  
3:00 AM 26.6 °F 17.7 °F 23.0 °F 86% 29.92 in - ESE 8.9 mph - N/A   Clear
3:30 AM 26.6 °F 17.7 °F 23.0 °F 86% 29.92 in - ESE 8.9 mph - N/A   Clear
4:00 AM 28.4 °F 19.9 °F 23.0 °F 80% 29.92 in 6.2 mi ESE 8.9 mph - N/A   Scattered Clouds
4:30 AM 28.4 °F 18.7 °F 23.0 °F 80% 29.92 in 6.2 mi ESE 11.2 mph - N/A   Mostly Cloudy
5:00 AM 28.4 °F 19.9 °F 24.8 °F 86% 29.89 in 6.2 mi ESE 8.9 mph - N/A   Mostly Cloudy
5:30 AM 28.4 °F 19.9 °F 24.8 °F 86% 29.89 in 6.2 mi ESE 8.9 mph - N/A   Mostly Cloudy
6:00 AM 29 °F - 25 °F 80% 29.92 in 6 mi SE 4.5 mph - -   Mostly Cloudy
6:00 AM 28.4 °F 18.7 °F 24.8 °F 86% 29.89 in 6.2 mi ESE 11.2 mph - N/A   Mostly Cloudy
6:30 AM 28.4 °F 17.6 °F 24.8 °F 86% 29.86 in 6.2 mi ESE 13.4 mph - N/A   Mostly Cloudy
7:30 AM 30.2 °F 20.9 °F 26.6 °F 86% 29.86 in 6.2 mi ESE 11.2 mph - N/A   Mostly Cloudy
8:00 AM 30.2 °F 20.9 °F 28.4 °F 93% 29.86 in - ESE 11.2 mph - N/A   Clear
8:30 AM 32.0 °F 23.2 °F 30.2 °F 93% 29.86 in 6.2 mi SE 11.2 mph - N/A   Mostly Cloudy
9:00 AM 32 °F - 29 °F 84% 29.89 in 6 mi ESE 4.5 mph - -   Overcast
9:30 AM 33.8 °F 24.5 °F 26.6 °F 75% 29.83 in - SE 13.4 mph - N/A   Clear
10:00 AM 33.8 °F 24.5 °F 26.6 °F 75% 29.83 in - SE 13.4 mph - N/A   Clear
10:30 AM 35.6 °F 26.8 °F 28.4 °F 75% 29.83 in - SE 13.4 mph - N/A   Clear
11:00 AM 35.6 °F 26.8 °F 26.6 °F 70% 29.83 in - SE 13.4 mph - N/A   Clear
11:30 AM 35.6 °F 26.8 °F 26.6 °F 70% 29.80 in 6.2 mi SE 13.4 mph - N/A   Mostly Cloudy
12:00 PM 36 °F - 26 °F 55% 29.83 in 6 mi SE 4.5 mph - -   Partly Cloudy
12:00 PM 35.6 °F 27.7 °F 26.6 °F 70% 29.80 in 6.2 mi SE 11.2 mph - N/A   Mostly Cloudy
12:30 PM 37.4 °F 29.9 °F 26.6 °F 65% 29.77 in 6.2 mi SSE 11.2 mph 22.4 mph N/A   Mostly Cloudy
1:00 PM 37.4 °F 30.9 °F 24.8 °F 60% 29.77 in 6.2 mi SE 8.9 mph 20.1 mph N/A   Mostly Cloudy
1:30 PM 35.6 °F 26.8 °F 26.6 °F 70% 29.77 in 6.2 mi SE 13.4 mph - N/A   Mostly Cloudy
2:30 PM 37.4 °F 29.1 °F 26.6 °F 65% 29.74 in - SE 13.4 mph - N/A   Clear
3:00 PM 37 °F - 26 °F 53% 29.78 in 6 mi SE 4.5 mph - -   Partly Cloudy
3:00 PM 37.4 °F 29.1 °F 26.6 °F 65% 29.74 in - SE 13.4 mph - N/A   Clear
3:30 PM 35.6 °F 27.7 °F 26.6 °F 70% 29.74 in - SE 11.2 mph - N/A   Clear
4:00 PM 33.8 °F 25.4 °F 26.6 °F 75% 29.74 in - SE 11.2 mph - N/A   Clear
4:30 PM 33.8 °F 25.4 °F 26.6 °F 75% 29.74 in - ESE 11.2 mph - N/A   Clear
5:00 PM 33.8 °F 25.4 °F 26.6 °F 75% 29.71 in - SE 11.2 mph - N/A   Clear
5:30 PM 35.6 °F 27.7 °F 26.6 °F 70% 29.71 in 6.2 mi SE 11.2 mph - N/A Rain , Snow Light Snow
6:00 PM 35 °F - 27 °F 62% 29.76 in 6 mi SE 4.5 mph - -   Overcast
6:00 PM 33.8 °F 25.4 °F 28.4 °F 81% 29.71 in 6.2 mi ESE 11.2 mph - N/A   Mostly Cloudy
6:30 PM 33.8 °F 25.4 °F 28.4 °F 81% 29.71 in 6.2 mi SE 11.2 mph - N/A   Mostly Cloudy
7:00 PM 33.8 °F 25.4 °F 28.4 °F 81% 29.71 in 6.2 mi ESE 11.2 mph - N/A   Mostly Cloudy
7:30 PM 33.8 °F 25.4 °F 28.4 °F 81% 29.68 in - ESE 11.2 mph - N/A   Clear
8:00 PM 33.8 °F 24.5 °F 28.4 °F 81% 29.68 in - ESE 13.4 mph - N/A   Clear
8:30 PM 33.8 °F 24.5 °F 28.4 °F 81% 29.68 in - ESE 13.4 mph - N/A   Clear
9:00 PM 34 °F - 28 °F 70% 29.73 in 6 mi ESE 2.2 mph - -   Overcast
9:00 PM 33.8 °F 25.4 °F 28.4 °F 81% 29.68 in 6.2 mi ESE 11.2 mph - N/A   Mostly Cloudy
9:30 PM 33.8 °F 24.5 °F 28.4 °F 81% 29.68 in 6.2 mi SE 13.4 mph - N/A   Mostly Cloudy
10:00 PM 33.8 °F 25.4 °F 30.2 °F 87% 29.68 in - SE 11.2 mph - N/A   Clear
10:30 PM 33.8 °F 25.4 °F 30.2 °F 87% 29.65 in 6.2 mi SE 11.2 mph - N/A   Mostly Cloudy
11:00 PM 33.8 °F 26.5 °F 30.2 °F 87% 29.65 in 6.2 mi ESE 8.9 mph - N/A Rain , Snow Light Snow
11:30 PM 33.8 °F 25.4 °F 30.2 °F 87% 29.65 in 5.6 mi ESE 11.2 mph - N/A Rain , Snow Light Snow